Flag for India Weather past 2 weeks in Dharamshala, Himachal Pradesh, India

Now
79 °F

Passing clouds.


Feels Like: 80 °F
Forecast: 57 / 79 °F
Wind: 2 mph from North

Location: Amritsar Airport


UV Index: 7 (High)

Visibility: 4 mi


Pressure: 29.95 "Hg

Humidity: 51%

Dew point: 59 °F

Location of DharamshalaLocation

Historic Weather in Dharamshala

°F

Dharamshala temperature yesterday

Maximum temperature yesterday: 79 °F (at 3:30 PM)
Minimum temperature yesterday: 63 °F (at 7:00 PM)
Average temperature yesterday: 68 °F

Past Weeks' High & Low Weather Summary

 TemperatureHumidityPressure
High90 °F (Apr 12, 3:00 PM)100% (Apr 8, 3:00 AM)32.43 "Hg (Apr 8, 3:00 AM)
Low54 °F (Apr 8, 3:00 AM)21% (Apr 14, 1:00 PM)29.71 "Hg (Apr 17, 2:30 AM)
Average71 °F66%29.88 "Hg
* Reported Apr 4 1:00 PM — Apr 19 1:00 PM, Dharamshala, Weather by CustomWeather, © 2014

Note: Actual official high and low records may vary slightly from our data, if they occured in-between our weather recording intervals... More about our weather records

Advertising

Historic Weather Conditions — Data for Previous 24 hours

 ConditionsComfort  
Time TempWeatherWind HumidityBarometerVisibility
1:00 PM
Apr 19
79 °FScattered clouds.3 mph54%29.95 "Hg4 mi
12:30 PM77 °FScattered clouds.2 mph57%29.98 "Hg4 mi
12:00 PM77 °FScattered clouds.No wind61%29.98 "Hg4 mi
11:30 AM75 °FScattered clouds.No wind65%29.98 "Hg4 mi
11:00 AM73 °FScattered clouds.No wind69%29.98 "Hg4 mi
10:30 AM73 °FScattered clouds.No wind69%29.98 "Hg4 mi
9:30 AM68 °FFog.No wind83%29.98 "Hg2 mi
9:00 AM66 °FFog.No wind88%29.98 "Hg2 mi
8:30 AM63 °FFog.No wind94%29.98 "Hg2 mi
8:00 AM63 °FFog.No wind94%29.98 "Hg2 mi
7:30 AM61 °FFog.No wind94%29.95 "Hg2 mi
7:00 AM59 °FFog.No wind100%29.95 "Hg1 mi
6:30 AM57 °FFog.No wind100%29.95 "Hg2 mi
6:00 AM59 °FFog.No wind100%29.92 "Hg2 mi
5:30 AM57 °FFog.No wind100%29.92 "Hg2 mi
5:00 AM57 °FFog.No wind100%29.92 "Hg2 mi
4:30 AM59 °FFog.No wind100%29.89 "Hg2 mi
4:00 AM59 °FFog.No wind100%29.89 "Hg2 mi
3:30 AM59 °FFog.No wind100%29.89 "Hg2 mi
3:00 AM61 °FFog.No wind100%29.89 "Hg2 mi
2:30 AM61 °FFog.3 mph100%29.89 "Hg2 mi
2:00 AM61 °FFog.No wind100%29.92 "Hg2 mi
1:30 AM63 °FFog.6 mph94%29.92 "Hg2 mi
1:00 AM63 °FFog.3 mph94%29.92 "Hg2 mi
12:30 AM63 °FFog.No wind94%29.92 "Hg2 mi
12:00 AM63 °FFog.2 mph100%29.95 "Hg2 mi
11:30 PM
Apr 18
63 °FFog.7 mph94%29.92 "Hg2 mi
11:00 PM63 °FRain. Passing clouds.1 mph100%29.95 "Hg2 mi
10:30 PM63 °FRain. Passing clouds.10 mph100%29.95 "Hg2 mi
10:00 PM63 °FRain. Mostly cloudy.3 mph100%29.98 "Hg2 mi
9:30 PM63 °FRain. Mostly cloudy.2 mph100%30.01 "Hg2 mi
9:00 PM63 °FThunderstorms. Mostly cloudy.14 mph100%29.95 "Hg2 mi
8:30 PM63 °FThunderstorms. Mostly cloudy.12 mph100%29.95 "Hg2 mi
8:00 PM63 °FThunderstorms. Mostly cloudy.16 mph100%29.92 "Hg2 mi
7:30 PM63 °FThunderstorms. Mostly cloudy.17 mph94%29.89 "Hg2 mi
7:00 PM63 °FThunderstorms. Cloudy.14 mph100%29.89 "Hg2 mi
5:30 PM73 °FThunderstorms. More clouds than sun.9 mph69%29.80 "Hg2 mi
5:00 PM75 °FThunderstorms. More clouds than sun.8 mph69%29.80 "Hg2 mi
4:30 PM77 °FBroken clouds.10 mph61%29.86 "Hg3 mi
4:00 PM79 °FBroken clouds.9 mph58%29.86 "Hg3 mi
3:30 PM79 °FBroken clouds.12 mph58%29.86 "Hg3 mi
2:30 PM75 °FBroken clouds.14 mph65%29.89 "Hg3 mi
Weather by CustomWeather, © 2014

See weather overview